Weather observations for the past three days for
Albert Whitted Airport
Metric (Imperial)
Date Time (edt) Wind (kph) Vis. (km) Weather Sky Cond. Temperature (ºC) Relative Humidity Wind Chill (°C) Heat Index (°C) Pressure Precipitation (cm)
Air Dwpt 6 hour altimeter (cm) sea level (mb) 1 hr 3 hr 6 hr
Max. Min.
08 14:53 W 7 16.09 Mostly Cloudy BKN035 30.6 21.1 57% 33 76 1013.1
08 13:53 S 15 16.09 Mostly Cloudy FEW047 BKN055 30 22.8 31.1 26.7 65% 34 76.07 1014.3
08 12:53 SE 15 16.09 Mostly Cloudy SCT037 BKN048 30 22.8 65% 34 76.12 1014.8
08 11:53 SE 15 16.09 Overcast BKN027 OVC032 28.9 23.3 72% 33 76.17 1015.4
08 10:53 SE 13 16.09 Mostly Cloudy BKN029 BKN055 28.9 23.3 72% 33 76.2 1015.7
08 09:53 N 7 16.09 Mostly Cloudy BKN010 BKN021 BKN030 29.4 22.2 65% 33 76.17 1015.6
08 08:53 N 7 16.09 Mostly Cloudy BKN010 27.8 23.3 77% 31 76.17 1015.5
08 07:53 Vrbl 6 16.09 Mostly Cloudy BKN030 26.7 22.8 26.7 25.6 79% 29 76.12 1014.8
08 06:53 W 6 16.09 Partly Cloudy SCT027 26.1 22.8 82% 28 76.07 1014.2
08 05:53 W 6 16.09 Fair CLR 26.1 22.8 82% 28 76.02 1013.5
08 04:53 W 7 16.09 Fair CLR 26.1 22.2 79% 28 76 1013.1
08 03:53 W 7 16.09 Fair CLR 26.1 22.2 79% 28 76 1013.0
08 02:53 NW 6 16.09 Fair CLR 26.1 21.7 77% 28 76.02 1013.5
08 01:53 W 13 16.09 Fair CLR 26.7 21.7 27.8 26.1 74% 29 76.07 1014.0
08 00:53 W 11 16.09 Fair CLR 26.7 21.7 74% 29 76.07 1014.1
07 23:53 W 11 16.09 Fair CLR 26.7 21.7 74% 29 76.1 1014.5
07 22:53 W 9 16.09 Fair CLR 26.7 21.7 74% 29 76.1 1014.5
07 21:53 W 11 16.09 Fair CLR 26.7 21.7 74% 29 76.07 1014.2
07 20:53 W 13 16.09 Fair CLR 27.2 21.1 69% 29 76.05 1013.9
07 19:53 W 13 16.09 Fair CLR 27.8 20 30 27.8 63% 29 76.05 1013.8
07 18:53 W 15 16.09 Fair CLR 28.9 18.9 55% 30 76.05 1013.6
07 17:53 W 13 16.09 Fair CLR 28.9 20 59% 31 76.05 1013.7
07 16:53 W 15 16.09 Fair CLR 29.4 17.8 50% 30 76.05 1013.9
07 15:53 W 11 G 30 16.09 Fair CLR 28.9 17.8 51% 30 76.07 1014.3
07 14:53 W 20 16.09 Fair CLR 29.4 18.3 51% 30 76.12 1014.9
07 13:53 SW 19 G 31 16.09 Fair CLR 28.9 18.9 28.9 25.6 55% 30 76.17 1015.5
07 12:53 SW 19 16.09 Fair CLR 28.9 19.4 57% 30 76.2 1015.8
07 11:53 Calm 16.09 Fair CLR 28.3 20.6 63% 30 76.23 1016.2
07 10:53 S 24 16.09 Fair CLR 28.3 21.1 65% 31 76.23 1016.1
07 09:53 S 15 16.09 Fair CLR 27.8 20.6 65% 30 76.2 1016.0
07 08:53 S 15 16.09 A Few Clouds FEW010 26.7 21.7 74% 29 76.17 1015.6
07 07:53 S 9 16.09 Fair CLR 25.6 21.1 25.6 23.9 76% 27 76.15 1015.2
07 06:53 S 13 16.09 Fair CLR 24.4 21.1 82% 25 76.12 1014.9
07 05:53 SE 9 16.09 Fair CLR 25 22.2 85% 26 76.1 1014.4
07 04:53 E 11 16.09 Fair CLR 25.6 22.8 85% 27 76.1 1014.4
07 03:53 E 11 16.09 Fair CLR 25.6 22.8 85% 27 76.05 1013.9
07 02:53 E 11 16.09 Fair CLR 25.6 22.8 85% 27 76.1 1014.5
07 01:53 E 13 16.09 Partly Cloudy SCT012 25.6 22.2 27.2 25.6 82% 27 76.15 1015.1
07 00:53 N 9 16.09 Fair CLR 25.6 22.2 82% 27 76.17 1015.5
06 23:53 N 9 16.09 Fair CLR 25.6 22.2 82% 27 76.2 1015.8
06 22:53 N 6 16.09 Fair CLR 26.1 22.2 79% 28 76.17 1015.6
06 21:53 NW 6 16.09 Fair CLR 26.1 22.8 82% 28 76.15 1015.2
06 20:53 W 15 16.09 Fair CLR 26.1 22.2 79% 28 76.15 1015.1
06 19:53 W 17 16.09 Fair CLR 27.2 22.2 30 27.2 74% 30 76.12 1014.9
06 18:53 SW 19 16.09 Fair CLR 28.3 20.6 63% 30 76.12 1014.7
06 17:53 W 17 16.09 Fair CLR 29.4 21.1 61% 32 76.12 1014.9
06 16:53 SW 15 16.09 Fair CLR 28.9 21.7 65% 32 76.12 1014.9
06 15:53 W 19 16.09 Fair CLR 28.9 22.8 70% 32 76.15 1015.1
06 14:53 SW 17 16.09 Fair CLR 29.4 22.2 65% 33 76.17 1015.6
06 13:53 SW 15 16.09 Fair CLR 29.4 21.7 30.6 23.9 63% 32 76.23 1016.2
06 12:53 SW 13 16.09 Fair CLR 29.4 20.6 59% 32 76.25 1016.6
06 11:53 S 11 16.09 Fair CLR 29.4 20.6 59% 32 76.28 1016.7
06 10:53 S 11 16.09 Fair CLR 28.9 21.1 63% 31 76.25 1016.6
06 09:53 SE 15 16.09 Fair CLR 26.7 21.1 71% 28 76.25 1016.4
06 08:53 S 19 16.09 Fair CLR 25 21.1 79% 26 76.23 1016.3
06 07:53 SE 20 16.09 Fair CLR 23.9 21.1 25 23.3 84% 24 76.17 1015.6
06 06:53 SE 17 16.09 Fair CLR 23.3 20.6 85% 76.15 1015.2
06 05:53 S 17 16.09 Fair CLR 23.3 20 82% 76.12 1014.9
06 04:53 SE 17 16.09 Fair CLR 23.9 20 79% 24 76.12 1014.7
06 03:53 SE 17 16.09 Fair CLR 24.4 19.4 74% 25 76.12 1014.9
06 02:53 SE 19 16.09 Fair CLR 24.4 18.9 72% 25 76.15 1015.1
06 01:53 SE 22 16.09 Fair CLR 25 18.9 26.7 25 69% 26 76.17 1015.6
06 00:53 SE 24 16.09 Fair CLR 25.6 5 27% 26 76.23 1016.0
05 23:53 SE 30 16.09 Mostly Cloudy BKN045 26.1 6.1 28% 26 76.2 1015.8
05 22:53 N 9 16.09 Fair CLR 25.6 10 37% 26 76.2 1015.7
05 21:53 N 7 16.09 Fair CLR 26.1 9.4 35% 26 76.12 1014.9
05 20:53 N 9 16.09 Fair CLR 26.7 8.9 33% 26 76.1 1014.4
05 19:53 NW 15 16.09 Fair CLR 27.2 8.9 32.2 27.2 32% 27 76.05 1013.8
05 18:53 NW 17 16.09 Fair CLR 28.3 8.3 28% 27 76.05 1013.6
05 17:53 Vrbl 11 16.09 Fair CLR 28.9 7.8 27% 28 76.05 1013.6
05 16:53 W 9 16.09 Fair CLR 29.4 7.2 25% 28 76.02 1013.3
05 15:53 Calm 16.09 Fair CLR 31.7 7.8 23% 30 76.07 1014.0
Date Time (edt) Wind (kph) Vis. (km) Weather Sky Cond. Air Dwpt Max. Min. Relative Humidity Wind Chill (°C) Heat Index (°C) altimeter (cm) sea level (mb) 1 hr 3 hr 6 hr
6 hour
Temperature (ºC) Pressure Precipitation (cm)